Time,TemperatureF,DewpointF,PressureIn,WindDirection,WindDirectionDegrees,WindSpeedMPH,WindSpeedGustMPH,Humidity,HourlyPrecipIn,Conditions,Clouds,dailyrainin,SoftwareType,DateUTC
2013-01-11 00:03:00,67.0,62.0,30.03,SW,214,4.0,-999.0,85,-99.99,,,0.00,,2013-01-11 06:03:00,
2013-01-11 00:12:00,67.0,62.0,30.03,SW,214,4.0,-999.0,85,-99.99,,,0.00,,2013-01-11 06:12:00,
2013-01-11 00:22:00,67.0,62.0,30.03,SE,133,4.0,-999.0,85,-99.99,,,0.00,,2013-01-11 06:22:00,
2013-01-11 00:32:00,67.0,62.0,30.03,South,176,4.0,-999.0,83,-99.99,,,0.00,,2013-01-11 06:32:00,
2013-01-11 00:42:00,67.0,62.0,30.03,South,176,4.0,-999.0,83,-99.99,,,0.00,,2013-01-11 06:42:00,
2013-01-11 00:52:00,67.0,62.0,30.03,South,176,4.0,-999.0,83,-99.99,,,0.00,,2013-01-11 06:52:00,
2013-01-11 01:02:00,67.0,62.0,30.02,SE,133,5.0,-999.0,83,-99.99,,,0.00,,2013-01-11 07:02:00,
2013-01-11 01:12:00,67.0,62.0,30.03,South,176,5.0,-999.0,83,-99.99,,,0.00,,2013-01-11 07:12:00,
2013-01-11 01:22:00,67.0,62.0,30.03,South,176,5.0,-999.0,83,-99.99,,,0.00,,2013-01-11 07:22:00,
2013-01-11 01:32:00,67.0,62.0,30.03,SSE,160,4.0,-999.0,83,-99.99,,,0.00,,2013-01-11 07:32:00,
2013-01-11 01:42:00,67.0,62.0,30.02,SE,145,4.0,-999.0,84,-99.99,,,0.00,,2013-01-11 07:42:00,
2013-01-11 01:52:00,67.0,62.0,30.02,SE,145,4.0,-999.0,84,-99.99,,,0.00,,2013-01-11 07:52:00,
2013-01-11 02:02:00,67.0,62.0,30.02,SSE,162,4.0,-999.0,83,-99.99,,,0.00,,2013-01-11 08:02:00,
2013-01-11 02:12:00,67.0,62.0,30.02,ESE,113,6.0,-999.0,83,-99.99,,,0.00,,2013-01-11 08:12:00,
2013-01-11 02:22:00,67.0,62.0,30.02,ESE,113,6.0,-999.0,83,-99.99,,,0.00,,2013-01-11 08:22:00,
2013-01-11 02:32:00,67.0,62.0,30.03,SSE,157,4.0,-999.0,83,-99.99,,,0.00,,2013-01-11 08:32:00,
2013-01-11 02:42:00,67.0,62.0,30.03,SSE,157,4.0,-999.0,83,-99.99,,,0.00,,2013-01-11 08:42:00,
2013-01-11 02:52:00,67.0,62.0,30.02,South,172,4.0,-999.0,83,-99.99,,,0.00,,2013-01-11 08:52:00,
2013-01-11 03:02:00,67.0,62.0,30.02,South,185,5.0,-999.0,84,-99.99,,,0.00,,2013-01-11 09:02:00,
2013-01-11 03:12:00,67.0,62.0,30.02,South,185,5.0,-999.0,84,-99.99,,,0.00,,2013-01-11 09:12:00,
2013-01-11 03:22:00,67.0,62.0,30.02,SSW,199,5.0,-999.0,84,-99.99,,,0.00,,2013-01-11 09:22:00,
2013-01-11 03:32:00,67.0,62.0,30.02,SSE,151,5.0,-999.0,84,-99.99,,,0.00,,2013-01-11 09:32:00,
2013-01-11 03:42:00,67.0,62.0,30.02,SSE,151,5.0,-999.0,84,-99.99,,,0.00,,2013-01-11 09:42:00,
2013-01-11 03:52:00,67.0,62.0,30.01,SSE,160,6.0,-999.0,85,-99.99,,,0.00,,2013-01-11 09:52:00,
2013-01-11 04:02:00,66.0,62.0,30.00,SE,131,5.0,-999.0,86,-99.99,,,0.00,,2013-01-11 10:02:00,
2013-01-11 04:12:00,66.0,62.0,30.00,SE,131,5.0,-999.0,86,-99.99,,,0.00,,2013-01-11 10:12:00,
2013-01-11 04:22:00,66.0,62.0,30.01,SSE,150,5.0,-999.0,86,-99.99,,,0.00,,2013-01-11 10:22:00,
2013-01-11 04:32:00,66.0,61.0,30.01,South,172,4.0,-999.0,85,-99.99,,,0.00,,2013-01-11 10:32:00,
2013-01-11 04:42:00,66.0,61.0,30.01,South,172,4.0,-999.0,85,-99.99,,,0.00,,2013-01-11 10:42:00,
2013-01-11 04:52:00,66.0,61.0,30.01,SSE,158,4.0,-999.0,85,-99.99,,,0.00,,2013-01-11 10:52:00,
2013-01-11 05:02:00,66.0,62.0,30.01,South,173,5.0,-999.0,86,-99.99,,,0.00,,2013-01-11 11:02:00,
2013-01-11 05:12:00,66.0,62.0,30.01,South,173,5.0,-999.0,86,-99.99,,,0.00,,2013-01-11 11:12:00,
2013-01-11 05:22:00,66.0,62.0,30.01,South,184,4.0,-999.0,88,-99.99,,,0.00,,2013-01-11 11:22:00,
2013-01-11 05:32:00,65.0,62.0,30.02,SSE,156,4.0,-999.0,91,-99.99,,,0.00,,2013-01-11 11:32:00,
2013-01-11 05:42:00,65.0,62.0,30.02,SSE,156,4.0,-999.0,91,-99.99,,,0.00,,2013-01-11 11:42:00,
2013-01-11 05:53:00,64.0,62.0,30.02,SSW,192,3.0,-999.0,92,-99.99,,,0.00,,2013-01-11 11:53:00,
2013-01-11 06:03:00,65.0,63.0,30.04,SE,130,3.0,-999.0,92,-99.99,,,0.00,,2013-01-11 12:03:00,
2013-01-11 06:12:00,65.0,63.0,30.04,SE,130,3.0,-999.0,92,-99.99,,,0.00,,2013-01-11 12:12:00,
2013-01-11 06:22:00,64.0,62.0,30.04,South,183,3.0,-999.0,92,-99.99,,,0.00,,2013-01-11 12:22:00,
2013-01-11 06:33:00,64.0,62.0,30.05,South,177,3.0,-999.0,94,-99.99,,,0.00,,2013-01-11 12:33:00,
2013-01-11 06:42:00,64.0,62.0,30.05,South,177,3.0,-999.0,94,-99.99,,,0.00,,2013-01-11 12:42:00,
2013-01-11 06:52:00,64.0,63.0,30.06,SSE,162,2.0,-999.0,95,-99.99,,,0.00,,2013-01-11 12:52:00,
2013-01-11 07:03:00,63.0,62.0,30.06,SSE,161,1.0,-999.0,95,-99.99,,,0.00,,2013-01-11 13:03:00,
2013-01-11 07:12:00,63.0,62.0,30.06,SSE,161,1.0,-999.0,95,-99.99,,,0.00,,2013-01-11 13:12:00,
2013-01-11 07:22:00,63.0,62.0,30.05,SSE,147,2.0,-999.0,95,-99.99,,,0.00,,2013-01-11 13:22:00,
2013-01-11 07:33:00,63.0,62.0,30.06,SE,136,2.0,-999.0,96,-99.99,,,0.00,,2013-01-11 13:33:00,
2013-01-11 07:42:00,63.0,62.0,30.06,SE,136,2.0,-999.0,96,-99.99,,,0.00,,2013-01-11 13:42:00,
2013-01-11 07:52:00,63.0,62.0,30.06,SSW,193,1.0,-999.0,96,-99.99,,,0.00,,2013-01-11 13:52:00,
2013-01-11 08:03:00,63.0,62.0,30.07,South,177,1.0,-999.0,96,-99.99,,,0.00,,2013-01-11 14:03:00,
2013-01-11 08:12:00,63.0,62.0,30.07,South,177,1.0,-999.0,96,-99.99,,,0.00,,2013-01-11 14:12:00,
2013-01-11 08:23:00,63.0,62.0,30.07,SSE,162,2.0,-999.0,97,-99.99,,,0.01,,2013-01-11 14:23:00,
2013-01-11 08:33:00,63.0,62.0,30.08,SSE,154,1.0,-999.0,97,-99.99,,,0.01,,2013-01-11 14:33:00,
2013-01-11 08:42:00,63.0,62.0,30.08,SSE,154,1.0,-999.0,97,-99.99,,,0.01,,2013-01-11 14:42:00,
2013-01-11 08:53:00,63.0,62.0,30.08,SSE,154,1.0,-999.0,97,-99.99,,,0.01,,2013-01-11 14:53:00,
2013-01-11 09:03:00,63.0,62.0,30.09,SE,139,1.0,-999.0,97,-99.99,,,0.01,,2013-01-11 15:03:00,
2013-01-11 09:12:00,64.0,63.0,30.09,ESE,120,1.0,-999.0,97,-99.99,,,0.01,,2013-01-11 15:12:00,
2013-01-11 09:23:00,64.0,63.0,30.09,ESE,120,1.0,-999.0,97,-99.99,,,0.01,,2013-01-11 15:23:00,
2013-01-11 09:33:00,64.0,63.0,30.09,SSE,162,2.0,-999.0,96,-99.99,,,0.01,,2013-01-11 15:33:00,
2013-01-11 09:43:00,64.0,63.0,30.09,SSE,162,2.0,-999.0,96,-99.99,,,0.01,,2013-01-11 15:43:00,
2013-01-11 09:52:00,65.0,64.0,30.09,SSE,164,2.0,-999.0,95,-99.99,,,0.01,,2013-01-11 15:52:00,
2013-01-11 10:03:00,65.0,63.0,30.09,SSW,199,2.0,-999.0,94,-99.99,,,0.01,,2013-01-11 16:03:00,
2013-01-11 10:12:00,65.0,63.0,30.09,SSW,199,2.0,-999.0,94,-99.99,,,0.01,,2013-01-11 16:12:00,
2013-01-11 10:22:00,65.0,63.0,30.09,SSW,199,2.0,-999.0,94,-99.99,,,0.01,,2013-01-11 16:22:00,
2013-01-11 10:33:00,65.0,63.0,30.09,SSE,160,2.0,-999.0,94,-99.99,,,0.01,,2013-01-11 16:33:00,
2013-01-11 10:42:00,65.0,63.0,30.09,SSE,160,2.0,-999.0,94,-99.99,,,0.01,,2013-01-11 16:42:00,
2013-01-11 10:53:00,67.0,64.0,30.08,South,191,4.0,-999.0,91,-99.99,,,0.01,,2013-01-11 16:53:00,
2013-01-11 11:03:00,67.0,64.0,30.07,SE,137,5.0,-999.0,90,-99.99,,,0.01,,2013-01-11 17:03:00,
2013-01-11 11:12:00,68.0,65.0,30.07,South,191,3.0,-999.0,89,-99.99,,,0.01,,2013-01-11 17:12:00,
2013-01-11 11:22:00,68.0,65.0,30.07,South,191,3.0,-999.0,89,-99.99,,,0.01,,2013-01-11 17:22:00,
2013-01-11 11:33:00,69.0,65.0,30.05,SSE,154,3.0,-999.0,86,-99.99,,,0.01,,2013-01-11 17:33:00,
2013-01-11 11:43:00,69.0,65.0,30.05,SSE,154,3.0,-999.0,86,-99.99,,,0.01,,2013-01-11 17:43:00,
2013-01-11 11:53:00,69.0,65.0,30.04,SSE,148,4.0,-999.0,86,-99.99,,,0.01,,2013-01-11 17:53:00,
2013-01-11 12:03:00,69.0,64.0,30.04,SSW,197,4.0,-999.0,84,-99.99,,,0.01,,2013-01-11 18:03:00,
2013-01-11 12:12:00,69.0,64.0,30.04,SSW,197,4.0,-999.0,84,-99.99,,,0.01,,2013-01-11 18:12:00,
2013-01-11 12:23:00,69.0,64.0,30.03,SSW,198,4.0,-999.0,84,-99.99,,,0.01,,2013-01-11 18:23:00,
2013-01-11 12:33:00,70.0,64.0,30.03,South,189,4.0,-999.0,82,-99.99,,,0.01,,2013-01-11 18:33:00,
2013-01-11 12:43:00,70.0,64.0,30.03,South,189,4.0,-999.0,82,-99.99,,,0.01,,2013-01-11 18:43:00,
2013-01-11 12:53:00,69.0,63.0,30.03,SSW,204,6.0,-999.0,82,-99.99,,,0.01,,2013-01-11 18:53:00,
2013-01-11 13:02:00,70.0,64.0,30.01,SSE,164,4.0,-999.0,82,-99.99,,,0.01,,2013-01-11 19:02:00,
2013-01-11 13:12:00,70.0,64.0,30.01,SSE,164,4.0,-999.0,82,-99.99,,,0.01,,2013-01-11 19:12:00,
2013-01-11 13:22:00,70.0,64.0,30.01,SW,214,4.0,-999.0,81,-99.99,,,0.01,,2013-01-11 19:22:00,
2013-01-11 13:32:00,70.0,64.0,30.01,SW,214,4.0,-999.0,81,-99.99,,,0.01,,2013-01-11 19:32:00,
2013-01-11 13:43:00,70.0,64.0,30.01,SW,214,4.0,-999.0,81,-99.99,,,0.01,,2013-01-11 19:43:00,
2013-01-11 13:53:00,70.0,64.0,30.01,SW,214,4.0,-999.0,81,-99.99,,,0.01,,2013-01-11 19:53:00,
2013-01-11 14:03:00,70.0,64.0,30.01,SW,214,4.0,-999.0,81,-99.99,,,0.01,,2013-01-11 20:03:00,
2013-01-11 14:22:00,69.0,64.0,30.01,SE,144,3.0,-999.0,85,-99.99,,,0.01,,2013-01-11 20:22:00,
2013-01-11 14:33:00,69.0,64.0,30.01,SE,144,3.0,-999.0,85,-99.99,,,0.01,,2013-01-11 20:33:00,
2013-01-11 14:43:00,69.0,64.0,30.01,SE,144,3.0,-999.0,85,-99.99,,,0.01,,2013-01-11 20:43:00,
2013-01-11 14:52:00,69.0,64.0,30.01,SE,144,3.0,-999.0,85,-99.99,,,0.01,,2013-01-11 20:52:00,
2013-01-11 15:53:00,68.0,65.0,30.01,South,186,3.0,-999.0,89,-99.99,,,0.01,,2013-01-11 21:53:00,
2013-01-11 16:02:00,67.0,64.0,30.01,SSW,195,2.0,-999.0,90,-99.99,,,0.01,,2013-01-11 22:02:00,
2013-01-11 16:12:00,67.0,64.0,30.01,SSW,195,2.0,-999.0,90,-99.99,,,0.01,,2013-01-11 22:12:00,
2013-01-11 16:22:00,67.0,64.0,30.01,SSW,210,2.0,-999.0,90,-99.99,,,0.01,,2013-01-11 22:22:00,
2013-01-11 16:33:00,67.0,64.0,30.01,South,175,1.0,-999.0,91,-99.99,,,0.01,,2013-01-11 22:33:00,
2013-01-11 16:42:00,67.0,64.0,30.01,South,175,1.0,-999.0,91,-99.99,,,0.01,,2013-01-11 22:42:00,
2013-01-11 16:53:00,66.0,64.0,30.01,SE,134,3.0,-999.0,92,-99.99,,,0.01,,2013-01-11 22:53:00,
2013-01-11 17:02:00,66.0,64.0,30.02,ESE,121,2.0,-999.0,93,-99.99,,,0.01,,2013-01-11 23:02:00,
2013-01-11 17:13:00,66.0,64.0,30.02,ESE,121,2.0,-999.0,93,-99.99,,,0.01,,2013-01-11 23:13:00,
2013-01-11 17:22:00,66.0,64.0,30.02,SE,139,1.0,-999.0,94,-99.99,,,0.01,,2013-01-11 23:22:00,
2013-01-11 17:32:00,66.0,64.0,30.02,SSE,154,1.0,-999.0,94,-99.99,,,0.01,,2013-01-11 23:32:00,
2013-01-11 17:43:00,66.0,64.0,30.02,SSE,154,1.0,-999.0,94,-99.99,,,0.01,,2013-01-11 23:43:00,
2013-01-11 17:53:00,66.0,64.0,30.02,SSE,154,1.0,-999.0,94,-99.99,,,0.01,,2013-01-11 23:53:00,
2013-01-11 18:02:00,65.0,64.0,30.03,SE,124,2.0,-999.0,95,-99.99,,,0.02,,2013-01-12 00:02:00,
2013-01-11 18:12:00,65.0,64.0,30.03,ESE,116,2.0,-999.0,96,-99.99,,,0.03,,2013-01-12 00:12:00,
2013-01-11 18:23:00,65.0,64.0,30.03,ESE,116,2.0,-999.0,96,-99.99,,,0.03,,2013-01-12 00:23:00,
2013-01-11 18:32:00,65.0,64.0,30.03,SSE,157,2.0,-999.0,97,-99.99,,,0.02,,2013-01-12 00:32:00,
2013-01-11 18:42:00,65.0,64.0,30.03,SSE,157,2.0,-999.0,97,-99.99,,,0.02,,2013-01-12 00:42:00,
2013-01-11 18:52:00,65.0,64.0,30.03,SSE,148,2.0,-999.0,97,-99.99,,,0.03,,2013-01-12 00:52:00,
2013-01-11 19:02:00,65.0,64.0,30.03,ESE,112,1.0,-999.0,97,-99.99,,,0.04,,2013-01-12 01:02:00,
2013-01-11 19:12:00,65.0,64.0,30.03,ESE,112,1.0,-999.0,97,-99.99,,,0.04,,2013-01-12 01:12:00,
2013-01-11 19:22:00,65.0,64.0,30.03,ESE,110,2.0,-999.0,97,-99.99,,,0.04,,2013-01-12 01:22:00,
2013-01-11 19:32:00,65.0,64.0,30.03,ESE,119,4.0,-999.0,98,-99.99,,,0.05,,2013-01-12 01:32:00,
2013-01-11 19:42:00,65.0,64.0,30.03,ESE,119,4.0,-999.0,98,-99.99,,,0.05,,2013-01-12 01:42:00,
2013-01-11 19:52:00,65.0,64.0,30.03,SE,140,3.0,-999.0,98,-99.99,,,0.06,,2013-01-12 01:52:00,
2013-01-11 20:02:00,65.0,64.0,30.03,SE,131,1.0,-999.0,98,-99.99,,,0.06,,2013-01-12 02:02:00,
2013-01-11 20:12:00,65.0,64.0,30.03,SE,131,1.0,-999.0,98,-99.99,,,0.06,,2013-01-12 02:12:00,
2013-01-11 20:22:00,64.0,63.0,30.03,SE,144,1.0,-999.0,98,-99.99,,,0.06,,2013-01-12 02:22:00,
2013-01-11 20:32:00,64.0,63.0,30.03,SE,143,1.0,-999.0,98,-99.99,,,0.06,,2013-01-12 02:32:00,
2013-01-11 20:42:00,64.0,63.0,30.03,SE,143,1.0,-999.0,98,-99.99,,,0.06,,2013-01-12 02:42:00,
2013-01-11 20:53:00,64.0,63.0,30.04,SE,143,0.0,-999.0,98,-99.99,,,0.06,,2013-01-12 02:53:00,
2013-01-11 21:02:00,64.0,63.0,30.04,SE,139,1.0,-999.0,98,-99.99,,,0.06,,2013-01-12 03:02:00,
2013-01-11 21:12:00,64.0,63.0,30.04,SE,139,1.0,-999.0,98,-99.99,,,0.06,,2013-01-12 03:12:00,
2013-01-11 21:22:00,64.0,63.0,30.04,SE,141,0.0,-999.0,98,-99.99,,,0.06,,2013-01-12 03:22:00,
2013-01-11 21:32:00,64.0,63.0,30.04,SE,141,0.0,-999.0,98,-99.99,,,0.06,,2013-01-12 03:32:00,
2013-01-11 21:43:00,64.0,63.0,30.04,SE,141,0.0,-999.0,98,-99.99,,,0.06,,2013-01-12 03:43:00,
2013-01-11 21:53:00,64.0,63.0,30.04,SE,141,0.0,-999.0,98,-99.99,,,0.06,,2013-01-12 03:53:00,
2013-01-11 22:02:00,64.0,63.0,30.03,ESE,108,1.0,-999.0,98,-99.99,,,0.06,,2013-01-12 04:02:00,
2013-01-11 22:12:00,64.0,63.0,30.03,ESE,108,1.0,-999.0,98,-99.99,,,0.06,,2013-01-12 04:12:00,
2013-01-11 22:22:00,64.0,63.0,30.03,SE,127,1.0,-999.0,98,-99.99,,,0.06,,2013-01-12 04:22:00,
2013-01-11 22:32:00,64.0,63.0,30.03,SSE,147,1.0,-999.0,98,-99.99,,,0.06,,2013-01-12 04:32:00,
2013-01-11 22:42:00,64.0,63.0,30.03,SSE,147,1.0,-999.0,98,-99.99,,,0.06,,2013-01-12 04:42:00,
2013-01-11 22:52:00,65.0,65.0,30.03,SSE,147,2.0,-999.0,99,-99.99,,,0.06,,2013-01-12 04:52:00,
2013-01-11 23:03:00,65.0,65.0,30.03,SSE,151,1.0,-999.0,99,-99.99,,,0.06,,2013-01-12 05:03:00,
2013-01-11 23:12:00,65.0,65.0,30.03,SSE,151,1.0,-999.0,99,-99.99,,,0.06,,2013-01-12 05:12:00,
2013-01-11 23:22:00,66.0,66.0,30.03,South,189,1.0,-999.0,99,-99.99,,,0.06,,2013-01-12 05:22:00,
2013-01-11 23:32:00,66.0,66.0,30.03,South,184,1.0,-999.0,99,-99.99,,,0.06,,2013-01-12 05:32:00,
2013-01-11 23:42:00,66.0,66.0,30.03,South,184,1.0,-999.0,99,-99.99,,,0.06,,2013-01-12 05:42:00,
2013-01-11 23:52:00,66.0,66.0,30.03,South,191,1.0,-999.0,99,-99.99,,,0.06,,2013-01-12 05:52:00,